When you browse on this site, cookies collect data to enhance your experience and personalize the content and advertising you see.
Visit our Privacy Policy to learn more. By continuing to use the site, you agree to this use of cookies and data.
EN

Hourly Weather Berdychev

Today, 12 July, Sunday

Time Temperature Precipitation Wind Pressure Humidity
00:00 +19°C° 0 mm 2 mps 739 mmHg 75%
01:00 +19°C° 0 mm 2 mps 739 mmHg 76%
02:00 +18°C° 0 mm 2 mps 739 mmHg 76%
03:00 +18°C° 0 mm 2 mps 739 mmHg 77%
04:00 +18°C° 0 mm 2 mps 738 mmHg 78%
05:00 +17°C° 0 mm 2 mps 738 mmHg 79%
06:00 +20°C° 0 mm 1 mps 738 mmHg 76%
07:00 +22°C° 0 mm 1 mps 738 mmHg 72%
08:00 +23°C° 0 mm 1 mps 739 mmHg 68%
09:00 +24°C° 0 mm 1 mps 739 mmHg 66%
10:00 +26°C° 0 mm 2 mps 739 mmHg 63%
11:00 +27°C° 0 mm 2 mps 739 mmHg 61%
12:00 +25°C° 0.9 mm 4 mps 739 mmHg 69%
13:00 +22°C° 0.9 mm 6 mps 739 mmHg 77%
14:00 +20°C° 0.9 mm 8 mps 739 mmHg 85%
15:00 +17°C° 0.4 mm 8 mps 739 mmHg 87%
16:00 +15°C° 0.4 mm 8 mps 739 mmHg 90%
17:00 +12°C° 0.4 mm 7 mps 739 mmHg 92%
18:00 +11°C° 0.5 mm 7 mps 740 mmHg 92%
19:00 +11°C° 0.5 mm 7 mps 740 mmHg 93%
20:00 +10°C° 0.5 mm 7 mps 740 mmHg 94%
21:00 +10°C° 0.2 mm 6 mps 740 mmHg 93%
22:00 +10°C° 0.2 mm 6 mps 741 mmHg 93%
23:00 +10°C° 0.2 mm 5 mps 741 mmHg 93%

Tomorrow, 13 July, Monday

Time Temperature Precipitation Wind Pressure Humidity
00:00 +10°C° 0 mm 5 mps 741 mmHg 93%
01:00 +10°C° 0 mm 6 mps 741 mmHg 93%
02:00 +9°C° 0 mm 6 mps 741 mmHg 93%
03:00 +9°C° 0 mm 5 mps 740 mmHg 93%
04:00 +9°C° 0 mm 5 mps 740 mmHg 93%
05:00 +9°C° 0 mm 5 mps 740 mmHg 94%
06:00 +10°C° 0 mm 5 mps 740 mmHg 89%
07:00 +13°C° 0 mm 6 mps 740 mmHg 84%
08:00 +14°C° 0 mm 6 mps 740 mmHg 80%
09:00 +15°C° 0 mm 6 mps 740 mmHg 75%
10:00 +16°C° 0 mm 6 mps 740 mmHg 70%
11:00 +19°C° 0 mm 6 mps 740 mmHg 65%
12:00 +18°C° 0.1 mm 7 mps 740 mmHg 64%
13:00 +18°C° 0.1 mm 7 mps 740 mmHg 63%
14:00 +20°C° 0.1 mm 7 mps 740 mmHg 61%
15:00 +18°C° 0 mm 7 mps 739 mmHg 61%
16:00 +19°C° 0 mm 6 mps 739 mmHg 62%
17:00 +19°C° 0 mm 6 mps 739 mmHg 62%
18:00 +17°C° 0 mm 5 mps 739 mmHg 68%
19:00 +15°C° 0 mm 5 mps 739 mmHg 74%
20:00 +14°C° 0 mm 4 mps 739 mmHg 80%
21:00 +13°C° 0 mm 4 mps 739 mmHg 82%
22:00 +12°C° 0 mm 4 mps 739 mmHg 83%
23:00 +11°C° 0 mm 4 mps 739 mmHg 85%

Day after tomorrow, 14 July, Tuesday

Time Temperature Precipitation Wind Pressure Humidity
00:00 +11°C° 0 mm 4 mps 739 mmHg 88%
01:00 +10°C° 0 mm 4 mps 739 mmHg 90%
02:00 +10°C° 0 mm 4 mps 739 mmHg 93%
03:00 +10°C° 0 mm 3 mps 739 mmHg 93%
04:00 +9°C° 0 mm 3 mps 739 mmHg 94%
05:00 +9°C° 0 mm 3 mps 739 mmHg 95%
06:00 +11°C° 0 mm 4 mps 739 mmHg 89%
07:00 +13°C° 0 mm 4 mps 739 mmHg 83%
08:00 +15°C° 0 mm 4 mps 739 mmHg 78%
09:00 +16°C° 0 mm 5 mps 739 mmHg 72%
10:00 +19°C° 0 mm 5 mps 739 mmHg 67%
11:00 +20°C° 0 mm 5 mps 739 mmHg 62%
12:00 +20°C° 0 mm 5 mps 739 mmHg 60%
13:00 +21°C° 0 mm 5 mps 739 mmHg 59%
14:00 +21°C° 0 mm 5 mps 739 mmHg 58%
15:00 +21°C° 0.1 mm 5 mps 739 mmHg 59%
16:00 +21°C° 0.1 mm 4 mps 738 mmHg 61%
17:00 +21°C° 0.1 mm 4 mps 738 mmHg 62%
18:00 +19°C° 0 mm 3 mps 738 mmHg 68%
19:00 +18°C° 0 mm 3 mps 739 mmHg 75%
20:00 +16°C° 0 mm 2 mps 739 mmHg 81%
21:00 +16°C° 0 mm 2 mps 739 mmHg 84%
22:00 +15°C° 0 mm 2 mps 739 mmHg 87%
23:00 +13°C° 0 mm 3 mps 739 mmHg 90%

15 July, Wednesday

Time Temperature Precipitation Wind Pressure Humidity
00:00 +13°C° 0 mm 2 mps 739 mmHg 91%
01:00 +13°C° 0 mm 2 mps 739 mmHg 92%
02:00 +13°C° 0 mm 2 mps 739 mmHg 93%
03:00 +13°C° 0 mm 2 mps 739 mmHg 94%
04:00 +12°C° 0 mm 2 mps 739 mmHg 94%
05:00 +12°C° 0 mm 2 mps 739 mmHg 95%
06:00 +14°C° 0 mm 2 mps 739 mmHg 89%
07:00 +16°C° 0 mm 3 mps 739 mmHg 83%
08:00 +18°C° 0 mm 3 mps 740 mmHg 77%
09:00 +19°C° 0 mm 3 mps 740 mmHg 72%
10:00 +20°C° 0 mm 3 mps 740 mmHg 66%
11:00 +22°C° 0 mm 3 mps 739 mmHg 60%
12:00 +22°C° 0 mm 3 mps 739 mmHg 58%
13:00 +24°C° 0 mm 3 mps 739 mmHg 56%
14:00 +24°C° 0 mm 3 mps 739 mmHg 53%
15:00 +24°C° 0 mm 3 mps 739 mmHg 55%
16:00 +24°C° 0 mm 3 mps 739 mmHg 56%
17:00 +24°C° 0 mm 3 mps 738 mmHg 57%
18:00 +21°C° 0 mm 2 mps 738 mmHg 63%
19:00 +19°C° 0 mm 2 mps 738 mmHg 69%
20:00 +19°C° 0 mm 1 mps 738 mmHg 75%
21:00 +18°C° 0 mm 1 mps 738 mmHg 77%
22:00 +16°C° 0 mm 1 mps 738 mmHg 79%
23:00 +14°C° 0 mm 0 mps 738 mmHg 81%

16 July, Thursday

Time Temperature Precipitation Wind Pressure Humidity
00:00 +15°C° 0 mm 1 mps 738 mmHg 82%
01:00 +14°C° 0 mm 1 mps 738 mmHg 83%
02:00 +14°C° 0 mm 1 mps 738 mmHg 84%
03:00 +14°C° 0 mm 1 mps 737 mmHg 84%
04:00 +14°C° 0 mm 1 mps 737 mmHg 84%
05:00 +13°C° 0 mm 0 mps 737 mmHg 84%
06:00 +15°C° 0 mm 0 mps 737 mmHg 79%
07:00 +17°C° 0 mm 0 mps 737 mmHg 74%
08:00 +20°C° 0 mm 1 mps 737 mmHg 69%
09:00 +20°C° 0 mm 0 mps 737 mmHg 65%
10:00 +21°C° 0 mm 0 mps 737 mmHg 61%
11:00 +22°C° 0 mm 0 mps 737 mmHg 58%
12:00 +23°C° 0 mm 0 mps 737 mmHg 55%
13:00 +23°C° 0 mm 0 mps 736 mmHg 53%
14:00 +24°C° 0 mm 0 mps 736 mmHg 51%
15:00 +24°C° 0.1 mm 0 mps 736 mmHg 53%
16:00 +25°C° 0.1 mm 1 mps 736 mmHg 54%
17:00 +25°C° 0.1 mm 1 mps 735 mmHg 56%
18:00 +23°C° 0.2 mm 1 mps 735 mmHg 62%
19:00 +20°C° 0.2 mm 0 mps 735 mmHg 68%
20:00 +18°C° 0.2 mm 0 mps 735 mmHg 74%
21:00 +17°C° 0 mm 0 mps 735 mmHg 77%
22:00 +17°C° 0 mm 0 mps 735 mmHg 79%
23:00 +18°C° 0 mm 1 mps 734 mmHg 81%

17 July, Friday

Time Temperature Precipitation Wind Pressure Humidity
00:00 +18°C° 0 mm 1 mps 734 mmHg 83%
01:00 +16°C° 0 mm 1 mps 734 mmHg 85%
02:00 +16°C° 0 mm 1 mps 734 mmHg 87%
03:00 +16°C° 0 mm 2 mps 734 mmHg 88%
04:00 +16°C° 0 mm 2 mps 734 mmHg 90%
05:00 +15°C° 0 mm 2 mps 734 mmHg 92%
06:00 +17°C° 0 mm 3 mps 734 mmHg 90%
07:00 +18°C° 0 mm 3 mps 734 mmHg 88%
08:00 +19°C° 0 mm 3 mps 734 mmHg 86%
09:00 +19°C° 0.1 mm 4 mps 734 mmHg 85%
10:00 +19°C° 0.1 mm 4 mps 734 mmHg 83%
11:00 +20°C° 0.1 mm 5 mps 734 mmHg 81%
12:00 +19°C° 0 mm 5 mps 734 mmHg 81%
13:00 +17°C° 0 mm 5 mps 735 mmHg 80%
14:00 +17°C° 0 mm 5 mps 735 mmHg 80%
15:00 +18°C° 0 mm 4 mps 735 mmHg 77%
16:00 +19°C° 0 mm 4 mps 735 mmHg 74%
17:00 +19°C° 0 mm 3 mps 735 mmHg 72%
18:00 +18°C° 0 mm 2 mps 735 mmHg 76%
19:00 +17°C° 0 mm 2 mps 735 mmHg 81%
20:00 +16°C° 0 mm 1 mps 735 mmHg 86%
21:00 +15°C° 0 mm 1 mps 735 mmHg 88%
22:00 +15°C° 0 mm 2 mps 735 mmHg 90%
23:00 +14°C° 0 mm 2 mps 736 mmHg 91%
Show more